Stations météo

réclame
Mon MeteoGroup
Mierkenis, Suède (2121): Température de l'air & dewpoint: 17.10.2018 12:00:00 - 23.10.2018 12:00:00 (CEST)Mierkenis, Suède (2121): Vitesse du vent & gusts: 17.10.2018 12:00:00 - 23.10.2018 12:00:00 (CEST)Mierkenis, Suède (2121): Direction du vent: 17.10.2018 12:00:00 - 23.10.2018 12:00:00 (CEST)Mierkenis, Suède (2121): reduced air pressure: 17.10.2018 12:00:00 - 23.10.2018 12:00:00 (CEST)Mierkenis, Suède (2121): visibility: 17.10.2018 12:00:00 - 23.10.2018 12:00:00 (CEST)Mierkenis, Suède (2121): Quantités de précipitations: 17.10.2018 12:00:00 - 23.10.2018 12:00:00 (CEST)
Date & Time tt [°C] td [°C] ff [km/h] ff [knt] fx [km/h] fx [knt] dd ppp [hPa] vv [km] rr [mm]
23.10.2018 12:00:00 -2,1 -2,8 10 6 19 11 SE 988,6 1,6 1,4
23.10.2018 11:00:00 -1,7 -4,0 12 7 19 10 ESE 988,4 4,6 0,1
23.10.2018 10:00:00 -2,4 -4,9 8 4 11 6 SSE 988,6 49 0,0
23.10.2018 09:00:00 -3,8 -5,5 5 3 11 6 SSW 989,2 50 0,0
23.10.2018 08:00:00 -4,3 -6,0 2 1 11 6 W 989,6 50 0,0
23.10.2018 07:00:00 -3,6 -5,8 9 5 11 6 NNW 989,8 50 0,0
23.10.2018 06:00:00 -4,0 -6,5 3 2 16 9 NNW 990,8 50 0,0
23.10.2018 05:00:00 -3,3 -6,6 5 3 17 9 NNW 991,1 50 0,0
23.10.2018 04:00:00 -1,2 -5,6 9 5 25 13 W 991,1 50 0,0
23.10.2018 03:00:00 -2,3 -5,4 3 2 25 13 WSW 991,5 50 0,0
23.10.2018 02:00:00 -2,4 -4,3 14 8 19 11 NNW 991,8 40 0,0
23.10.2018 01:00:00 -2,2 -3,8 3 2 21 11 ENE 992,4 35 0,0
23.10.2018 00:00:00 -1,3 -2,9 11 6 24 13 NNW 992,9 3,5 0,2
22.10.2018 23:00:00 -0,6 -3,8 13 7 24 13 WNW 993,2 4,5 0,0
22.10.2018 22:00:00 -0,9 -3,7 11 6 32 18 NNW 993,8 50 0,0
22.10.2018 21:00:00 -0,6 -3,5 14 8 37 20 NW 994,2 9 0,0
22.10.2018 20:00:00 -0,3 -4,4 16 9 37 20 WNW 994,3 13 0,1
22.10.2018 19:00:00 -0,2 -3,9 16 8 32 17 NW 994,2 6 0,0
22.10.2018 18:00:00 0,1 -4,7 15 8 31 17 NW 994,5 50 0,0
22.10.2018 17:00:00 -0,4 -2,5 11 6 31 17 NNW 994,5 9 0,0
22.10.2018 16:00:00 0,4 -3,0 14 7 31 17 NW 994,0 12 0,1
22.10.2018 15:00:00 0,3 -3,1 14 7 31 17 NW 993,8 5 0,1
22.10.2018 14:00:00 0,6 -3,9 11 6 36 19 NNW 993,3 46 0,0
22.10.2018 13:00:00 1,4 -3,9 4 2 47 26 WNW 993,8 45 0,0
22.10.2018 12:00:00 0,8 -3,7 19 10 47 26 WNW 992,9 50 0,0
22.10.2018 11:00:00 0,3 -1,6 14 8 28 15 NW 993,1 4,3 0,6
22.10.2018 10:00:00 0,5 -1,7 4 2 22 12 SSE 992,7 11 0,1
22.10.2018 09:00:00 -0,3 -1,9 9 5 35 19 SSE 992,7 5 0,1
22.10.2018 08:00:00 0,5 -3,6 6 4 35 19 E 993,2 50 0,0
22.10.2018 07:00:00 1,0 -3,3 13 7 32 18 WNW 993,5 31 0,0
22.10.2018 06:00:00 0,7 -4,0 17 9 30 16 W 994,4 26 0,1
22.10.2018 05:00:00 -0,3 -4,0 9 5 24 13 W 995,1 46 0,0
22.10.2018 04:00:00 -1,4 -3,9 12 7 34 18 NW 996,1 28 0,0
22.10.2018 03:00:00 -0,5 -3,0 14 7 34 18 NW 996,0 50 0,2
22.10.2018 02:00:00 -0,1 -1,7 15 8 41 22 NW 996,0 1,8 0,1
22.10.2018 01:00:00 0,9 -3,4 15 8 42 23 WNW 996,6 50 0,0
22.10.2018 00:00:00 1,2 -1,7 16 9 42 23 NW 996,4 6 0,1
21.10.2018 23:00:00 1,2 -1,5 16 8 36 19 WNW 996,6 4,2 0,0
21.10.2018 22:00:00 1,9 -2,6 17 9 36 19 WNW 997,5 35 0,0
21.10.2018 21:00:00 1,6 -2,7 14 7 38 20 NW 998,3 28 0,0
21.10.2018 20:00:00 2,4 -1,2 19 10 39 21 W 998,0 10 0,0
21.10.2018 19:00:00 2,7 -2,4 20 11 43 23 W 998,1 20 0,0
21.10.2018 18:00:00 1,9 -1,2 9 5 43 23 NW 998,8 41 0,0
21.10.2018 17:00:00 2,8 -1,4 15 8 33 18 W 998,4 18 0,0
21.10.2018 16:00:00 3,4 -1,7 16 8 45 25 WNW 998,8 17 0,0
21.10.2018 15:00:00 3,5 -1,5 16 8 50 27 WNW 999,3 19 0,0
21.10.2018 14:00:00 3,4 -1,4 27 14 50 27 W 999,9 40 2,3
21.10.2018 13:00:00 5,2 0,2 18 10 56 31 W 997,9 24 0,0
21.10.2018 12:00:00 3,7 1,2 13 7 56 31 WNW 999,4 8 0,8
21.10.2018 11:00:00 4,5 1,4 21 12 48 26 WNW 999,8 7 0,4
21.10.2018 10:00:00 4,5 -0,1 15 8 48 26 W 999,8 17 0,0
21.10.2018 09:00:00 4,9 -0,7 14 8 45 25 W 1000,1 20 0,0
21.10.2018 08:00:00 4,8 -0,6 19 10 44 24 WNW 1000,2 24 0,0
21.10.2018 07:00:00 4,4 2,3 16 9 36 19 NW 1000,3 7 0,6
21.10.2018 06:00:00 5,0 2,5 7 4 22 12 S 1000,3 22 0,0
21.10.2018 05:00:00 3,6 1,5 10 5 23 13 ESE 1001,6 41 0,0
21.10.2018 04:00:00 3,0 1,4 9 5 30 16 E 1002,9 30 0,1
21.10.2018 03:00:00 3,0 1,5 14 8 42 23 SE 1004,2 13 0,4
21.10.2018 02:00:00 3,2 1,4 16 9 43 23 ESE 1005,1 21 0,4
21.10.2018 01:00:00 4,0 0,5 24 13 43 23 ESE 1006,5 49 0,0
21.10.2018 00:00:00 3,4 0,3 24 13 34 19 ESE 1008,4 22 0,3
20.10.2018 23:00:00 3,4 0,1 13 7 20 11 SE 1009,9 50 0,0
20.10.2018 22:00:00 3,3 0,2 12 6 20 11 SE 1011,1 50 0,0
20.10.2018 21:00:00 2,5 0,4 5 3 13 7 SE 1013,1 50 0,0
20.10.2018 20:00:00 3,4 0,1 8 4 12 6 ESE 1013,9 50 0,0
20.10.2018 19:00:00 2,9 -0,4 6 3 14 8 SSE 1014,7 50 0,0
20.10.2018 18:00:00 3,7 -0,3 7 4 16 9 ESE 1014,9 50 0,0
20.10.2018 17:00:00 4,2 -0,4 5 3 17 9 S 1015,3 50 0,0
20.10.2018 16:00:00 4,8 0,2 5 3 24 13 ESE 1015,3 50 0,0
20.10.2018 15:00:00 4,6 0,6 14 8 27 14 N 1015,5 50 0,0
20.10.2018 14:00:00 4,7 0,6 6 3 27 14 WNW 1015,8 50 0,0
20.10.2018 13:00:00 6,2 0,9 10 6 23 12 W 1015,0 49 0,2
20.10.2018 12:00:00 4,8 2,2 5 3 14 7 SSE 1015,4 50 0,0
20.10.2018 11:00:00 2,6 1,6 6 3 14 8 ESE 1015,9 50 0,0
20.10.2018 10:00:00 2,3 1,7 9 5 14 8 ESE 1015,7 50 0,0
20.10.2018 09:00:00 1,3 0,9 7 4 13 7 SSE 1015,5 50 0,0
20.10.2018 08:00:00 1,4 1,0 8 5 13 7 SSE 1015,4 50 0,0
20.10.2018 07:00:00 1,3 0,9 4 2 9 5 S 1015,7 49 0,0
20.10.2018 06:00:00 1,2 0,8 5 3 9 5 WSW 1015,7 50 0,0
20.10.2018 05:00:00 1,0 0,6 3 2 8 4 E 1015,9 42 0,1
20.10.2018 04:00:00 0,6 0,2 0 0 6 3 N 1016,1 32 0,0
20.10.2018 03:00:00 0,5 -0,1 3 2 6 3 NNW 1016,2 21 0,0
20.10.2018 02:00:00 0,7 0,1 2 1 6 3 SSE 1016,2 43 0,0
20.10.2018 01:00:00 0,9 0,3 3 2 7 4 W 1016,3 50 0,0
20.10.2018 00:00:00 1,0 0,3 2 1 8 4 SE 1016,6 50 0,0
19.10.2018 23:00:00 1,5 0,5 4 2 9 5 SSE 1016,5 41 0,0
19.10.2018 22:00:00 2,1 0,3 5 3 9 5 SE 1016,5 47 0,0
19.10.2018 21:00:00 1,7 0,2 0 0 9 5 N 1016,5 50 0,0
19.10.2018 20:00:00 1,9 0,2 5 3 11 6 S 1016,3 34 0,0
19.10.2018 19:00:00 2,3 -0,1 6 4 17 9 SSE 1016,5 50 0,0
19.10.2018 18:00:00 1,6 -0,5 5 3 26 14 S 1016,4 50 0,0
19.10.2018 17:00:00 3,5 -0,2 10 5 32 17 WNW 1015,5 50 0,0
19.10.2018 16:00:00 3,5 -0,3 13 7 32 17 NW 1015,3 50 0,0
19.10.2018 15:00:00 4,5 -0,9 16 9 35 19 NW 1015,4 50 0,0
19.10.2018 14:00:00 4,8 -1,2 18 10 37 20 NW 1015,8 50 0,0
19.10.2018 13:00:00 4,9 0,3 21 12 36 20 NW 1014,9 50 0,0
19.10.2018 12:00:00 4,9 1,7 18 10 32 18 NNW 1014,6 45 0,0
19.10.2018 11:00:00 4,0 1,5 16 8 37 20 NW 1014,5 12 0,0
19.10.2018 10:00:00 3,9 0,8 12 7 37 20 WNW 1013,9 50 0,0
19.10.2018 09:00:00 3,6 0,6 16 8 48 26 NNW 1012,7 50 0,0
19.10.2018 08:00:00 3,5 0,7 19 10 48 26 NW 1011,5 50 0,0
19.10.2018 07:00:00 3,4 1,1 26 14 53 29 NW 1010,5 50 0,0
19.10.2018 06:00:00 3,5 1,2 31 17 53 29 NW 1010,0 35 0,0
19.10.2018 05:00:00 3,2 1,4 24 13 40 22 NW 1010,1 13 0,0
19.10.2018 04:00:00 3,5 1,2 19 11 46 25 NW 1009,9 9 0,0
19.10.2018 03:00:00 3,8 0,5 22 12 50 27 NW 1008,8 50 0,2
19.10.2018 02:00:00 4,2 0,7 22 12 50 27 NW 1007,7 50 0,0
19.10.2018 01:00:00 4,5 0,5 26 14 48 26 NW 1007,2 50 0,0
19.10.2018 00:00:00 4,0 0,9 23 12 48 26 NW 1006,8 23 0,0
18.10.2018 23:00:00 4,2 0,2 21 11 49 27 WNW 1006,1 50 0,0
18.10.2018 22:00:00 3,7 0,4 22 12 49 27 WNW 1005,6 21 0,0
18.10.2018 21:00:00 3,5 0,4 24 13 51 28 WNW 1004,9 13 0,0
18.10.2018 20:00:00 3,4 0,3 23 12 51 28 WNW 1004,2 25 0,4
18.10.2018 19:00:00 2,9 0,6 23 12 47 25 WNW 1004,1 6 0,2
18.10.2018 18:00:00 3,5 0,4 16 8 37 20 NW 1004,0 24 0,0
18.10.2018 17:00:00 3,6 0,1 20 11 37 20 WNW 1003,8 19 0,0
18.10.2018 16:00:00 4,0 0,2 16 8 35 19 WNW 1003,5 22 0,1
18.10.2018 15:00:00 4,1 -0,3 14 8 31 17 WSW 1003,7 41 0,0
18.10.2018 14:00:00 4,2 -0,2 16 8 31 17 WSW 1003,8 32 0,0
18.10.2018 13:00:00 4,8 -0,4 9 5 30 16 W 1003,7 50 0,0
18.10.2018 12:00:00 4,7 -0,9 7 4 30 16 WNW 1004,6 47 0,0
18.10.2018 11:00:00 3,5 -0,9 11 6 27 15 SW 1005,1 30 0,0
18.10.2018 10:00:00 3,0 -1,2 11 6 28 15 WNW 1005,3 40 0,0
18.10.2018 09:00:00 2,2 -1,1 10 5 28 15 N 1005,9 50 0,0
18.10.2018 08:00:00 2,8 -1,4 9 5 29 16 WNW 1005,2 41 0,0
18.10.2018 07:00:00 3,1 -0,9 13 7 29 16 NW 1005,2 50 0,0
18.10.2018 06:00:00 3,2 -0,4 10 5 29 15 W 1005,5 26 0,0
18.10.2018 05:00:00 3,0 -0,6 4 2 29 15 NW 1005,8 50 0,0
18.10.2018 04:00:00 3,3 -1,5 8 4 51 28 SW 1006,4 50 0,0
18.10.2018 03:00:00 3,2 -1,4 17 9 51 28 WNW 1006,5 41 0,0
18.10.2018 02:00:00 2,8 0,4 14 8 39 21 NW 1006,7 12 0,0
18.10.2018 01:00:00 3,5 -0,5 15 8 39 21 NW 1006,9 35 0,0
18.10.2018 00:00:00 5,0 -1,0 16 9 39 21 NW 1006,2 50 0,0
17.10.2018 23:00:00 5,5 0,3 13 7 36 20 W 1005,9 50 0,0
17.10.2018 22:00:00 1,6 0,9 4 2 18 10 SE 1007,0 50 0,0
17.10.2018 21:00:00 1,8 0,9 4 2 18 10 SSE 1007,1 50 0,0
17.10.2018 20:00:00 2,8 1,6 8 5 18 10 ESE 1007,3 42 0,0
17.10.2018 19:00:00 - - - - 20 11 - - - -
17.10.2018 18:00:00 3,4 1,3 9 5 20 11 ESE 1007,2 50 0,0
17.10.2018 17:00:00 3,5 1,2 10 5 16 9 SE 1007,6 50 0,0
17.10.2018 16:00:00 3,8 1,3 9 5 16 9 SE 1007,7 50 0,0
17.10.2018 15:00:00 3,6 1,3 11 6 20 11 SE 1007,9 50 0,0
17.10.2018 14:00:00 3,4 1,4 9 5 20 11 SSE 1008,3 50 0,0
17.10.2018 13:00:00 3,1 1,1 10 5 21 11 SE 1008,8 50 0,0
17.10.2018 12:00:00 2,9 1,1 11 6 21 11 SE 1009,1 50 0,0

tt = Température de l'air
td = dewpoint
ff = Vitesse du vent
fx = gusts
dd = Direction du vent
ppp = reduced air pressure
vv = visibility
rr = Quantités de précipitations

stations d'obs. à proximité